Location: Boiro
(42.6475°N, 8.8834°W)
Time: 12:38:58
(UTC+01:00)

Vanguard 1 Rocket - Pass Details

Date: 02 December 2021
Orbit: 651 x 4224 km, 34.3° (Epoch: 21 January)

Event Time Altitude Azimuth Distance (km) Brightness Sun altitude
Exits shadow 07:05:02 17° 259° (W) 4,536 10.4 -18.2°
Maximum altitude 07:18:37 66° 184° (S) 3,670 10.4 -15.8°
Drops below altitude 10° 07:43:54 10° 110° (ESE) 7,428 13.6 -11.4°
Sets 07:49:45 0° 108° (ESE) 8,397 14.6 -10.4°
